Epoch = 2014 July 2.0 TT T = 2014 June 17.58594 TT Peri. = 213.87614 e = 0.4127512 Node = 126.54501 2000.0 q = 2.3863022 AU Incl. = 1.08823 a = 4.0635286 AU n = 0.12032312 P = 8.19 years
m1 = 14.0 + 5 logΔ + 10.0 log r